Shaw AFB, SC

1:06 AM EST on January 20, 2017 (GMT -0500)
Shaw Air Force Base

Weather History for KSSC - February, 2014

Change the Weather History Date:

Tuesday, February 4, 2014

  Actual Average Record
Temperature  
Mean Temperature 44 °F -  
Max Temperature 48 °F 55 °F 71 °F (2012)
Min Temperature 40 °F 34 °F 19 °F (2009)
Degree Days  
Heating Degree Days 21    
Moisture  
Dew Point 39 °F    
Average Humidity 91    
Maximum Humidity 100    
Minimum Humidity 75    
Precipitation  
Precipitation 0.00 in - - ()
Sea Level Pressure  
Sea Level Pressure 30.20 in    
Wind  
Wind Speed 10 mph (NE)    
Max Wind Speed 15 mph    
Max Gust Speed -    
Visibility 4 miles    
Events Rain    
Averages and records for this station are not official NWS values.
T = Trace of Precipitation, MM = Missing Value Source: NWS Daily Summary

Daily Weather History Graph

Daily Weather History Graph

Search for Another Location

Airport or City:

Trip Planner

Search our weather history database for the weather conditions in past years. The results will help you decide how hot, cold, wet, or windy it might be!

Date:

Astronomy

Feb. 04, 2014 Rise Set
Actual Time 7:16 AM EST 5:55 PM EST
Civil Twilight 6:50 AM EST 6:21 PM EST
Nautical Twilight 6:20 AM EST 6:51 PM EST
Astronomical Twilight 5:51 AM EST 7:20 PM EST
Moon 10:10 AM EST (2/4) 11:29 PM EST (2/4)
Length of Visible Light 11h 31m
Length of Day
10h 38m
Waxing Crescent, 29% of the Moon is Illuminated
Feb 4
Waxing Crescent
Feb 6
First Quarter
Feb 14
Full
Feb 22
Last Quarter
Mar 1
New

Hourly Weather History & Observations

Time (EST) Temp. Windchill Dew Point Humidity Pressure Visibility Wind Dir Wind Speed Gust Speed Precip Events Conditions
12:08 AM 48.2 °F - 42.8 °F 82% 30.18 in 10.0 mi NE 11.5 mph - N/A   Mostly Cloudy
12:33 AM 48.2 °F - 41.0 °F 76% 30.18 in 10.0 mi NE 15.0 mph - N/A   Overcast
12:58 AM 48.4 °F - 40.6 °F 75% 30.19 in 10.0 mi NE 12.7 mph - N/A   Overcast
1:58 AM 47.7 °F - 39.9 °F 75% 30.19 in 10.0 mi NE 12.7 mph - N/A   Overcast
2:58 AM 46.8 °F - 39.4 °F 75% 30.21 in 10.0 mi ENE 15.0 mph - N/A   Overcast
3:58 AM 45.7 °F 39.1 °F 39.2 °F 78% 30.21 in 10.0 mi NE 15.0 mph - N/A   Overcast
4:08 AM 44.6 °F 38.4 °F 39.2 °F 81% 30.20 in 10.0 mi NE 12.7 mph - N/A   Overcast
4:33 AM 44.6 °F 39.2 °F 39.2 °F 81% 30.21 in 10.0 mi ENE 10.4 mph - N/A   Overcast
4:58 AM 44.4 °F 39.5 °F 38.3 °F 79% 30.22 in 10.0 mi ENE 9.2 mph - N/A   Overcast
5:18 AM 44.6 °F 39.2 °F 37.4 °F 76% 30.23 in 10.0 mi NE 10.4 mph - N/A   Overcast
5:58 AM 43.3 °F 37.7 °F 37.9 °F 81% 30.24 in 10.0 mi NE 10.4 mph - N/A   Overcast
6:58 AM 42.8 °F 36.2 °F 37.9 °F 83% 30.27 in 10.0 mi ENE 12.7 mph - N/A   Overcast
7:58 AM 42.6 °F 35.9 °F 37.8 °F 83% 30.26 in 10.0 mi ENE 12.7 mph - N/A   Overcast
8:02 AM 42.8 °F 36.6 °F 37.4 °F 81% 30.25 in 10.0 mi ENE 11.5 mph - N/A   Light Drizzle
8:21 AM 42.8 °F 37.0 °F 37.4 °F 81% 30.27 in 10.0 mi NE 10.4 mph - N/A   Overcast
8:31 AM 42.8 °F 37.0 °F 37.4 °F 81% 30.27 in 10.0 mi ENE 10.4 mph - N/A Rain Light Rain
8:52 AM 41.0 °F 34.7 °F 39.2 °F 93% 30.28 in 10.0 mi NE 10.4 mph - N/A   Overcast
8:58 AM 41.9 °F 35.9 °F 38.8 °F 89% 30.30 in 10.0 mi ENE 10.4 mph - 0.00 in   Overcast
9:20 AM 41.0 °F 34.3 °F 39.2 °F 93% 30.30 in 3.0 mi NE 11.5 mph - N/A   Overcast
9:33 AM 41.0 °F 34.3 °F 39.2 °F 93% 30.29 in 2.5 mi NE 11.5 mph - N/A   Overcast
9:37 AM 41.0 °F 34.7 °F 39.2 °F 93% 30.30 in 2.0 mi NE 10.4 mph - N/A   Light Drizzle
9:41 AM 41.0 °F 34.3 °F 39.2 °F 93% 30.30 in 4.0 mi NE 11.5 mph - N/A   Light Drizzle
9:48 AM 41.0 °F 34.7 °F 39.2 °F 93% 30.30 in 3.0 mi NE 10.4 mph - N/A   Light Drizzle
9:58 AM 41.5 °F 35.4 °F 39.6 °F 93% 30.32 in 2.0 mi NE 10.4 mph - 0.00 in   Light Drizzle
10:03 AM 41.0 °F 34.7 °F 39.2 °F 93% 30.30 in 2.0 mi ENE 10.4 mph - N/A   Light Drizzle
10:08 AM 41.0 °F 35.2 °F 39.2 °F 93% 30.31 in 2.2 mi NE 9.2 mph - N/A   Light Drizzle
10:09 AM 41.0 °F 35.2 °F 39.2 °F 93% 30.31 in 2.2 mi NE 9.2 mph - N/A   Light Drizzle
10:25 AM 41.0 °F 34.7 °F 39.2 °F 93% 30.31 in 2.2 mi NE 10.4 mph - N/A Rain Light Rain
10:51 AM 41.0 °F 35.2 °F 39.2 °F 93% 30.31 in 3.0 mi NE 9.2 mph - N/A Rain Light Rain
10:58 AM 41.7 °F 35.2 °F 39.9 °F 93% 30.31 in 4.0 mi NE 11.5 mph - 0.00 in Rain Light Rain
11:47 AM 42.8 °F 36.6 °F 39.2 °F 87% 30.29 in 2.5 mi NE 11.5 mph - N/A   Light Drizzle
11:58 AM 41.7 °F 35.2 °F 39.9 °F 93% 30.29 in 2.5 mi NE 11.5 mph - 0.00 in   Overcast
12:58 PM 41.7 °F 35.2 °F 39.9 °F 93% 30.25 in 2.5 mi ENE 11.5 mph - 0.00 in Rain Light Rain
1:58 PM 41.7 °F 35.2 °F 40.1 °F 94% 30.22 in 4.0 mi NE 11.5 mph - 0.00 in Rain Light Rain
2:21 PM 41.0 °F 34.3 °F 41.0 °F 100% 30.20 in 2.0 mi ENE 11.5 mph - N/A   Overcast
2:58 PM 41.7 °F 35.6 °F 40.3 °F 95% 30.20 in 3.0 mi NE 10.4 mph - 0.00 in   Overcast
3:58 PM 41.7 °F 37.3 °F 40.5 °F 95% 30.19 in 3.0 mi ENE 6.9 mph - 0.00 in   Overcast
4:48 PM 41.0 °F 35.2 °F 39.2 °F 93% 30.18 in 6.0 mi NE 9.2 mph - N/A   Overcast
4:58 PM 41.4 °F 35.7 °F 40.1 °F 95% 30.19 in 5.0 mi NE 9.2 mph - N/A   Overcast
5:28 PM 41.0 °F 35.8 °F 39.2 °F 93% 30.17 in 2.5 mi NE 8.1 mph - N/A   Overcast
5:58 PM 40.8 °F 35.6 °F 39.7 °F 96% 30.18 in 1.8 mi NE 8.1 mph - N/A   Overcast
6:03 PM 41.0 °F 36.4 °F 39.2 °F 93% 30.17 in 2.0 mi NE 6.9 mph - N/A   Overcast
6:04 PM 41.0 °F 36.4 °F 41.0 °F 100% 30.17 in 2.0 mi NE 6.9 mph - N/A   Overcast
6:09 PM 41.0 °F 34.7 °F 41.0 °F 100% 30.17 in 2.5 mi NE 10.4 mph - N/A   Overcast
6:13 PM 41.0 °F 34.3 °F 41.0 °F 100% 30.17 in 3.0 mi ENE 11.5 mph - N/A   Overcast
6:58 PM 40.8 °F 34.5 °F 40.1 °F 97% 30.18 in 3.0 mi NE 10.4 mph - 0.00 in   Overcast
7:08 PM 41.0 °F 35.2 °F 39.2 °F 93% 30.17 in 2.5 mi ENE 9.2 mph - N/A   Overcast
7:48 PM 41.0 °F 36.4 °F 39.2 °F 93% 30.15 in 2.5 mi ENE 6.9 mph - N/A   Overcast
7:53 PM 41.0 °F 37.1 °F 39.2 °F 93% 30.15 in 2.5 mi ENE 5.8 mph - N/A   Overcast
7:58 PM 40.8 °F 36.9 °F 40.1 °F 97% 30.16 in 2.5 mi ENE 5.8 mph - N/A   Overcast
8:13 PM 41.0 °F 35.2 °F 39.2 °F 93% 30.14 in 3.0 mi NE 9.2 mph - N/A   Overcast
8:18 PM 41.0 °F 35.8 °F 39.2 °F 93% 30.14 in 3.0 mi ENE 8.1 mph - N/A   Overcast
8:33 PM 41.0 °F 35.2 °F 39.2 °F 93% 30.14 in 3.0 mi ENE 9.2 mph - N/A   Overcast
8:43 PM 41.0 °F 35.2 °F 39.2 °F 93% 30.13 in 3.0 mi ENE 9.2 mph - N/A   Overcast
8:58 PM 40.6 °F 36.0 °F 39.9 °F 97% 30.14 in 3.0 mi ENE 6.9 mph - N/A   Overcast
9:03 PM 41.0 °F 37.1 °F 39.2 °F 93% 30.13 in 3.0 mi East 5.8 mph - N/A   Overcast
9:33 PM 41.0 °F 36.4 °F 39.2 °F 93% 30.12 in 2.5 mi ENE 6.9 mph - N/A   Overcast
9:48 PM 41.0 °F 37.1 °F 39.2 °F 93% 30.11 in 1.8 mi ENE 5.8 mph - N/A   Overcast
9:58 PM 40.6 °F 36.7 °F 39.9 °F 97% 30.12 in 1.8 mi ENE 5.8 mph - N/A   Overcast
10:03 PM 41.0 °F 36.4 °F 39.2 °F 93% 30.10 in 1.5 mi ENE 6.9 mph - N/A   Overcast
10:13 PM 41.0 °F 37.1 °F 39.2 °F 93% 30.10 in 1.2 mi ENE 5.8 mph - N/A   Overcast
10:48 PM 41.0 °F - 39.2 °F 93% 30.10 in 1.0 mi ENE 2.3 mph - N/A   Mist
10:53 PM 41.0 °F 39.0 °F 39.2 °F 93% 30.10 in 1.2 mi ENE 3.5 mph - N/A   Overcast
10:58 PM 41.0 °F 38.0 °F 39.2 °F 93% 30.11 in 1.0 mi NNE 4.6 mph - N/A   Mist
11:09 PM 41.0 °F 38.0 °F 39.2 °F 93% 30.10 in 1.0 mi NE 4.6 mph - N/A   Mist
11:24 PM 41.0 °F 38.0 °F 39.2 °F 93% 30.09 in 1.2 mi NE 4.6 mph - N/A   Overcast
11:31 PM 41.0 °F 38.0 °F 39.2 °F 93% 30.09 in 1.2 mi NNE 4.6 mph - N/A   Overcast
11:36 PM 41.0 °F 39.0 °F 41.0 °F 100% 30.09 in 1.5 mi NNE 3.5 mph - N/A   Overcast
11:41 PM 41.0 °F 39.0 °F 41.0 °F 100% 30.09 in 1.8 mi NNE 3.5 mph - N/A   Overcast
11:46 PM 41.0 °F 39.0 °F 41.0 °F 100% 30.09 in 2.0 mi North 3.5 mph - N/A   Overcast
11:58 PM 41.0 °F 39.0 °F 41.0 °F 100% 30.10 in 2.5 mi North 3.5 mph - 0.00 in   Overcast